Location: Monrovia
(34.7865°N, 86.7139°W)
Time: 21:21:02
(UTC+00:00)

USA 186 - Pass Details

Date: 14 July 2020
Orbit: 262 x 437 km, 96.9° (Epoch: 06 August)

Event Time Altitude Azimuth Distance (km) Brightness Sun altitude
Rises 01:49:38 0° 185° (S) 2,384 5.3 -9.3°
Reaches altitude 10° 01:51:47 10° 194° (SSW) 1,504 4.3 -9.7°
Maximum altitude 01:54:46 34° 261° (W) 700 3.4 -10.2°
Drops below altitude 10° 01:57:38 10° 329° (NNW) 1,446 5.7 -10.7°
Sets 01:59:40 0° 339° (NNW) 2,275 6.5 -11.0°
